DW9584 Weather Reports


Display with metric or nautical units.
time (UTC)temp
F
wind
direction
speed
MPH
gust
MPH
rain 1hr
in
rain 24hr
in
rain mn
in
humidity
%
barometer
mb
20260507140037 53 156 0.0 4.0 0.00 0.26 0.18 80 1012.5
20260507134524 53 314 0.0 3.0 0.00 0.26 0.18 82 1012.5
20260507133024 52 169 0.0 3.0 0.00 0.26 0.18 85 1012.5
20260507131541 52 27 1.0 3.0 0.00 0.26 0.18 87 1012.4
20260507130020 51 268 0.0 2.0 0.00 0.26 0.18 91 1012.5
20260507124522 51 305 1.0 4.0 0.00 0.26 0.18 93 1012.5
20260507123018 51 329 0.0 5.0 0.00 0.26 0.18 94 1012.5
20260507121504 51 314 1.0 3.0 0.00 0.26 0.18 94 1012.3
20260507120005 51 247 0.0 0.0 0.00 0.26 0.18 95 1012.2
20260507114504 50 247 0.0 0.0 0.00 0.26 0.18 94 1012.2
20260507113004 50 232 0.0 2.0 0.00 0.26 0.18 94 1012.2
20260507111506 50 266 0.0 2.0 0.00 0.26 0.18 94 1012.0
20260507110004 50 266 0.0 2.0 0.00 0.26 0.18 94 1011.8
20260507104506 50 227 0.0 1.0 0.00 0.26 0.18 94 1011.6
20260507103004 50 359 0.0 2.0 0.00 0.26 0.18 94 1011.4
20260507101503 50 359 0.0 0.0 0.00 0.26 0.18 94 1011.3
20260507100009 49 359 0.0 0.0 0.01 0.26 0.18 94 1011.2
20260507094504 49 359 0.0 0.0 0.01 0.26 0.18 94 1011.2
20260507093005 49 359 0.0 0.0 0.01 0.26 0.18 94 1011.2
20260507091505 49 359 0.0 0.0 0.01 0.26 0.18 94 1011.0
20260507090007 49 359 0.0 2.0 0.00 0.25 0.17 93 1010.7
20260507084514 49 6 0.0 2.0 0.00 0.25 0.17 93 1010.9
20260507083017 50 34 0.0 2.0 0.00 0.25 0.17 93 1010.9
20260507081508 50 340 0.0 2.0 0.00 0.25 0.17 93 1010.7
20260507080009 50 13 0.0 2.0 0.00 0.25 0.17 93 1011.1
20260507074510 50 345 0.0 2.0 0.00 0.25 0.17 93 1010.9
20260507073008 50 249 1.0 2.0 0.00 0.25 0.17 93 1011.1
20260507071516 50 169 0.0 2.0 0.00 0.25 0.17 93 1011.2
20260507070019 51 243 0.0 4.0 0.01 0.25 0.17 93 1011.5
20260507064512 51 272 0.0 2.0 0.02 0.25 0.17 92 1011.2
20260507063014 51 266 0.0 2.0 0.14 0.25 0.17 92 1010.8
20260507061513 52 129 0.0 2.0 0.17 0.25 0.17 92 1010.8
20260507060014 53 335 0.0 2.0 0.16 0.24 0.16 91 1011.2
20260507054512 54 62 0.0 2.0 0.15 0.23 0.15 90 1010.7
20260507053012 54 326 1.0 5.0 0.03 0.11 0.03 89 1011.1
20260507051516 55 354 1.0 3.0 0.00 0.08 0.00 88 1009.8
20260507050036 55 319 0.0 2.0 0.00 0.08 0.00 88 1009.9
20260507044522 56 192 0.0 3.0 0.00 0.08 0.00 87 1009.9
20260507043019 56 271 0.0 6.0 0.01 0.08 0.00 87 1009.5
20260507041518 58 318 1.0 7.0 0.01 0.08 0.00 87 1009.7
20260507040022 61 318 1.0 5.0 0.01 0.08 0.00 89 1009.5
20260507034516 61 299 0.0 2.0 0.01 0.08 0.08 88 1009.4
20260507033029 62 278 0.0 4.0 0.00 0.07 0.07 85 1009.4
20260507031510 63 304 0.0 3.0 0.00 0.07 0.07 84 1009.3
20260507030007 63 359 0.0 4.0 0.00 0.07 0.07 86 1009.0
20260507024510 64 271 1.0 6.0 0.00 0.07 0.07 86 1009.3
20260507023006 65 283 1.0 2.0 0.00 0.07 0.07 86 1009.2
20260507021502 65 207 0.0 2.0 0.00 0.07 0.07 84 1009.0
20260507020025 65 220 0.0 2.0 0.00 0.07 0.07 84 1009.1
20260507014523 65 198 0.0 3.0 0.00 0.07 0.07 83 1009.1
20260507013017 65 228 0.0 3.0 0.00 0.07 0.07 84 1008.9
20260507011520 65 271 0.0 2.0 0.00 0.07 0.07 84 1008.8
20260507010026 65 256 0.0 2.0 0.00 0.07 0.07 84 1008.9
20260507004509 65 243 0.0 2.0 0.00 0.07 0.07 84 1009.1
20260507003007 65 240 0.0 1.0 0.00 0.07 0.07 83 1008.6
20260507001524 66 248 0.0 5.0 0.00 0.07 0.07 82 1008.4
20260507000027 66 238 0.0 3.0 0.00 0.07 0.07 81 1008.3
20260506234520 67 164 0.0 2.0 0.00 0.07 0.07 80 1008.3
20260506233020 67 207 0.0 2.0 0.00 0.07 0.07 80 1008.3
20260506231519 67 212 0.0 3.0 0.00 0.07 0.07 79 1008.1
20260506230013 67 240 0.0 4.0 0.00 0.07 0.07 78 1008.2
20260506224514 68 283 0.0 3.0 0.00 0.07 0.07 78 1008.1
20260506223015 68 262 0.0 8.0 0.00 0.07 0.07 77 1008.2
20260506221526 68 224 0.0 4.0 0.00 0.07 0.07 77 1007.9
20260506220030 68 167 1.0 4.0 0.00 0.07 0.07 78 1008.0
20260506214524 68 231 0.0 4.0 0.00 0.07 0.07 77 1007.8
20260506213030 68 170 2.0 5.0 0.00 0.07 0.07 77 1007.9
20260506211528 68 183 2.0 6.0 0.00 0.07 0.07 76 1007.7
20260506210015 67 227 2.0 5.0 0.00 0.07 0.07 78 1007.7
20260506204514 67 315 0.0 8.0 0.00 0.07 0.07 79 1007.8
20260506203030 66 264 1.0 9.0 0.00 0.07 0.07 80 1007.7
20260506201533 66 250 1.0 4.0 0.00 0.07 0.07 80 1007.5
20260506200028 65 199 1.0 7.0 0.00 0.07 0.07 81 1007.8
20260506194525 65 244 0.0 5.0 0.00 0.07 0.07 82 1008.0
20260506193022 65 223 2.0 5.0 0.00 0.07 0.07 82 1008.1
20260506191522 64 174 0.0 8.0 0.00 0.07 0.07 83 1008.3
20260506190019 64 191 1.0 8.0 0.00 0.07 0.07 83 1008.4
20260506184519 64 170 0.0 10.0 0.00 0.07 0.07 84 1008.3
20260506183026 63 165 2.0 7.0 0.00 0.07 0.07 85 1008.6
20260506181519 63 233 0.0 4.0 0.00 0.07 0.07 86 1008.6
20260506180009 63 151 0.0 6.0 0.00 0.07 0.07 87 1008.9
20260506174507 62 176 0.0 5.0 0.00 0.07 0.07 87 1008.9
20260506173007 62 144 2.0 7.0 0.00 0.07 0.07 87 1008.9
20260506171538 62 209 1.0 8.0 0.01 0.07 0.07 88 1009.1
20260506170024 62 340 1.0 8.0 0.03 0.07 0.07 88 1009.1
20260506164522 62 176 1.0 5.0 0.05 0.07 0.07 89 1009.2
20260506163018 63 79 1.0 5.0 0.06 0.07 0.07 89 1009.3
20260506161514 62 262 0.0 6.0 0.06 0.06 0.06 89 1009.7
20260506160014 62 254 0.0 3.0 0.04 0.04 0.04 88 1010.3
20260506154508 63 178 0.0 2.0 0.02 0.02 0.02 85 1010.3
20260506153005 63 234 1.0 4.0 0.01 0.01 0.01 82 1010.4
20260506151533 65 223 2.0 8.0 0.00 0.00 0.00 77 1010.2
20260506150029 66 152 1.0 11.0 0.00 0.00 0.00 73 1010.0
20260506144524 67 265 1.0 5.0 0.00 0.00 0.00 72 1010.0
20260506143037 67 292 1.0 6.0 0.00 0.00 0.00 72 1010.1
20260506141518 67 178 2.0 6.0 0.00 0.00 0.00 68 1010.2